Weather History for Elefsis, Greece

Change the Weather History Date:

Friday, November 2, 2012

  Actual Average Record
Temperature  
Mean Temperature 71 °F -  
Max Temperature 80 °F 62 °F 82 °F (2008)
Min Temperature 62 °F 49 °F 46 °F (2011)
Cooling Degree Days 6    
Growing Degree Days 21 (Base 50)    
Moisture  
Dew Point 56 °F    
Average Humidity 64    
Maximum Humidity 100    
Minimum Humidity 28    
Precipitation  
Precipitation 0.00 in - - ()
Sea Level Pressure  
Sea Level Pressure 29.79 in    
Wind  
Wind Speed 2 mph ()    
Max Wind Speed 12 mph    
Max Gust Speed -    
Visibility 6.0 miles    
Events      
Averages and records for this station are not official NWS values.
T = Trace of Precipitation, MM = Missing Value Source: Averaged Metar Reports

Daily Weather History Graph

Daily Weather History Graph

Search for Another Location

Airport:

Trip Planner

Search our weather history database for the weather conditions in past years. The results will help you decide how hot, cold, wet, or windy it might be!

Date:

Astronomy

Nov. 02, 2012 Rise Set
Actual Time 6:52 AM EET 5:25 PM EET
Civil Twilight 6:25 AM EET 5:52 PM EET
Nautical Twilight 5:54 AM EET 6:23 PM EET
Astronomical Twilight 5:23 AM EET 6:54 PM EET
Moon 7:58 PM EET (11/2) 9:56 AM EET (11/2)
Length of Visible Light 11h 27m
Length of Day
10h 32m
Waning Gibbous, 89% of the Moon is Illuminated
Nov 2
Waning Gibbous
Nov 7
Last Quarter
Nov 14
New
Nov 20
First Quarter
Nov 28
Full

Hourly Weather History & Observations

Time (EET) Temp. Dew Point Humidity Pressure Visibility Wind Dir Wind Speed Gust Speed Precip Events Conditions
12:50 AM 66.2 °F 62.6 °F 88% 29.74 in 6.2 mi Calm Calm - N/A   Partly Cloudy
1:50 AM 66.2 °F 62.6 °F 88% 29.74 in 6.2 mi Calm Calm - N/A   Partly Cloudy
2:50 AM 64.4 °F 62.6 °F 94% 29.74 in 6.2 mi Calm Calm - N/A   Partly Cloudy
3:50 AM 64.4 °F 62.6 °F 94% 29.74 in 6.2 mi Calm Calm - N/A   Partly Cloudy
4:50 AM 64.4 °F 62.6 °F 94% 29.74 in 6.2 mi Calm Calm - N/A   Partly Cloudy
5:20 AM 64.4 °F 62.6 °F 94% 29.74 in 6.2 mi Calm Calm - N/A   Partly Cloudy
5:50 AM 64.4 °F 62.6 °F 94% 29.74 in 6.2 mi Calm Calm - N/A   Partly Cloudy
6:20 AM 62.6 °F 60.8 °F 94% 29.74 in 6.2 mi Calm Calm - N/A   Partly Cloudy
6:50 AM 62.6 °F 62.6 °F 100% 29.74 in 4.3 mi Calm Calm - N/A   Partly Cloudy
7:20 AM 62.6 °F 62.6 °F 100% 29.74 in 5.0 mi Calm Calm - N/A   Partly Cloudy
7:50 AM 64.4 °F 62.6 °F 94% 29.74 in 5.0 mi Calm Calm - N/A   Partly Cloudy
8:20 AM 64.4 °F 62.6 °F 94% 29.74 in 5.6 mi Calm Calm - N/A   Partly Cloudy
8:50 AM 68.0 °F 66.2 °F 94% 29.77 in - Calm Calm - N/A   Clear
9:20 AM 71.6 °F 66.2 °F 83% 29.77 in - Calm Calm - N/A   Clear
9:50 AM 71.6 °F 62.6 °F 73% 29.80 in - South 4.6 mph - N/A   Clear
10:20 AM 73.4 °F 60.8 °F 65% 29.74 in 6.2 mi SSE 4.6 mph - N/A   Partly Cloudy
10:50 AM 75.2 °F 59.0 °F 57% 29.77 in - South 4.6 mph - N/A   Clear
11:20 AM 77.0 °F 57.2 °F 50% 29.77 in - South 4.6 mph - N/A   Clear
11:50 AM 77.0 °F 55.4 °F 47% 29.77 in - South 4.6 mph - N/A   Clear
12:20 PM 78.8 °F 51.8 °F 39% 29.77 in 6.2 mi Calm Calm - N/A   Partly Cloudy
12:50 PM 80.6 °F 50.0 °F 34% 29.77 in 6.2 mi Calm Calm - N/A   Partly Cloudy
1:20 PM 80.6 °F 44.6 °F 28% 29.77 in 6.2 mi SW 5.8 mph - N/A   Partly Cloudy
1:50 PM 80.6 °F 48.2 °F 32% 29.77 in 6.2 mi West 5.8 mph - N/A   Partly Cloudy
2:20 PM 80.6 °F 50.0 °F 34% 29.77 in 6.2 mi WNW 8.1 mph - N/A   Partly Cloudy
2:50 PM 80.6 °F 51.8 °F 37% 29.77 in 6.2 mi Calm Calm - N/A   Partly Cloudy
3:20 PM 78.8 °F 51.8 °F 39% 29.77 in 6.2 mi NW 9.2 mph - N/A   Partly Cloudy
3:50 PM 77.0 °F 51.8 °F 41% 29.77 in - NW 10.4 mph - N/A   Clear
4:20 PM 75.2 °F 51.8 °F 44% 29.77 in - WNW 9.2 mph - N/A   Clear
4:50 PM 73.4 °F 53.6 °F 50% 29.80 in - WNW 11.5 mph - N/A   Clear
5:20 PM 73.4 °F 53.6 °F 50% 29.80 in - NW 8.1 mph - N/A   Clear
5:50 PM 71.6 °F 55.4 °F 57% 29.80 in 6.2 mi Calm Calm - N/A   Partly Cloudy
6:20 PM 71.6 °F 53.6 °F 53% 29.80 in 6.2 mi Calm Calm - N/A   Partly Cloudy
6:50 PM 69.8 °F 53.6 °F 56% 29.83 in 6.2 mi Calm Calm - N/A   Partly Cloudy
7:20 PM 68.0 °F 53.6 °F 60% 29.83 in 6.2 mi Calm Calm - N/A   Partly Cloudy
7:50 PM 68.0 °F 53.6 °F 60% 29.83 in 6.2 mi Calm Calm - N/A   Partly Cloudy
8:20 PM 68.0 °F 53.6 °F 60% 29.83 in 6.2 mi Calm Calm - N/A   Partly Cloudy
8:50 PM 69.8 °F 51.8 °F 53% 29.86 in 6.2 mi NW 6.9 mph - N/A   Scattered Clouds
9:20 PM 69.8 °F 51.8 °F 53% 29.89 in 6.2 mi North 6.9 mph - N/A   Partly Cloudy
9:50 PM 69.8 °F 50.0 °F 49% 29.89 in 6.2 mi NNW 5.8 mph - N/A   Partly Cloudy
10:20 PM 68.0 °F 51.8 °F 56% 29.89 in 6.2 mi Variable 3.5 mph - N/A   Scattered Clouds
10:50 PM 66.2 °F 51.8 °F 60% 29.89 in 6.2 mi Variable 3.5 mph - N/A   Partly Cloudy
11:50 PM 64.4 °F 51.8 °F 64% 29.89 in 6.2 mi WNW 6.9 mph - N/A   Partly Cloudy